SCP
0 0 0 0 0 0 0 0 0 0 0 0 0 0 0 0 0 0 0 0 0 0 0 0 0 0 0 0 0 0 0 0
0 0 0 0 0 0 0 0 0 0 0 0 0 0 0 0 0 0 0 0 0 0 0 0 0 0 0 0 0 0 0 0
0 0 0 0 0 0 0 0 0 0 0 0 0 0 0 0 0 0 0 0 0 0 0 0 0 0 0 0 0 0 0 0
0 0 0 0 0 0 0 0 0 0 0 0 0 0 0 0 0 0 0 0 0 0 0 0 0 0 0 0 0 0 0 0
0 0 0 0 0 0 0 0 0 0 0 0 0 0 0 0 0 0 0 0 0 0 0 0 0 0 0 0 0 0 0 0
0 0 0 0 0 0 0 0 0 0 0 0 0 0 0 0 0 0 0 0 0 0 0 0 0 0 0 0 0 0 0 0
0 0 0 0 0 0 0 0 0 0 0 0 0 0 0 0 0 0 0 0 0 0 0 0 0 0 0 0 0 0 0 0
0 0 0 0 0 0 0 0 0 0 0 0 0 0 0 0 0 0 0 0 0 0 0 0 0 0 0 0 0 0 0 0
0 0 0 0 0 0 0 0 0 0 0 0 0 0 0 0 0 0 0 0 0 0 0 0 0 0 0 0 0 0 0 0
0 0 0 0 0 0 0 0 0 0 0 0 0 0 0 0 0 0 0 0 0 0 0 0 0 0 0 0 0 0 0 0
0 0 0 0 0 0 0 0 0 0 0 0 0 0 0 0 0 0 0 0 0 0 0 0 0 0 0 0 0 0 0 0
0 0 0 0 0 0 0 0 0 0 0 0 0 0 0 0 0 0 0 0 0 0 0 0 0 0 0 0 0 0 0 0
0 0 0 0 0 0 0 0 0 0 0 0 0 0 0 0 0 0 0 0 0 0 0 0 0 0 0 0 0 0 0 0
0 0 0 0 0 0 0 0 0 0 0 0 0 0 0 0 0 0 0 0 0 0 0 0 0 0 0 0 0 0 0 0
0 0 0 0 0 0 0 0 0 0 0 0 0 0 0 0 0 0 0 0 0 0 0 0 0 0 0 0 0 0 0 0
-0 -0 0 0 0 0 0 0 0 0 0 0 0 0 0 0 0 0 0 0 0 0 0 0 0 0 0 0 0 0 0 0
-0 0 0 0 0 0 0 0 0 0 0 0 0 0 0 0 0 0 0 0 0 0 0 0 0 0 0 0 0 0 0 0
0 0 0 0 0 0 0 0 0 0 0 0 0 0 0 0 0 0 0 0 0 0 0 0 0 0 0 0 0 0 0 0
0 0 0 0 0 0 0 0 0 0 0 0 0 0 0 0 0 0 0 0 0 0 0 0 0 0 0 0 0 0 0 0
0 0 0 0 0 0 0 0 0 0 0 0 0 0 0 0 0 0 0 0 0 0 0 0 0 0 0 0 0 0 0 0
Wind_Speed_500mb
38 39 44 56 67 74 79 87 93 97 96 96 91 88 90 91 89 89 84 80 76 70 64 58 49 49 52 52 50 48 43 42
29 38 46 56 68 73 81 86 90 95 101 102 101 99 96 91 91 90 87 83 78 70 64 58 51 52 53 52 51 47 43 41
48 48 58 65 66 71 81 86 83 93 103 107 107 103 99 94 93 90 87 83 78 72 67 62 57 59 55 52 50 49 44 44
49 62 72 70 73 80 85 85 83 91 99 105 108 106 104 97 92 88 86 85 80 75 68 62 61 59 55 51 48 48 45 45
63 66 74 76 79 87 87 86 88 92 98 103 105 103 105 102 91 86 86 86 83 75 70 67 64 59 55 51 49 46 46 46
65 71 74 80 82 88 92 95 95 97 97 100 99 99 102 100 89 83 84 86 84 79 75 72 66 58 52 50 49 45 45 46
77 72 81 89 92 97 100 98 96 99 98 98 98 99 102 96 91 86 86 88 88 84 79 71 62 54 52 52 46 47 44 47
85 79 74 76 81 87 86 89 103 99 97 96 94 98 98 93 91 88 91 89 92 86 77 68 58 52 50 48 51 44 44 47
76 84 89 81 69 68 78 83 91 91 93 93 93 94 93 91 90 89 89 92 95 87 77 66 53 53 50 52 44 41 43 44
94 96 79 67 60 61 67 73 78 81 88 92 90 91 93 92 91 90 92 96 97 83 75 64 57 54 56 48 41 39 41 41
60 59 61 49 42 53 61 66 72 72 80 84 88 91 92 91 93 92 89 95 91 81 72 58 52 61 51 45 36 37 37 41
74 60 48 47 42 45 53 60 69 72 74 80 83 86 86 89 92 91 93 100 92 81 70 53 62 52 50 39 36 30 32 38
77 69 60 56 44 40 47 55 66 66 69 75 80 84 87 86 93 91 99 101 90 80 66 62 58 54 44 39 26 24 29 35
68 69 73 70 62 58 53 49 54 60 63 69 76 80 83 86 93 94 104 101 90 78 65 61 56 48 41 29 24 25 22 23
70 73 82 68 70 71 69 61 53 54 62 67 72 76 79 84 91 96 108 100 91 78 71 61 56 46 34 27 22 18 17 15
84 77 89 77 62 68 76 80 74 72 72 72 76 79 82 88 97 106 106 93 78 74 59 65 57 45 35 25 15 14 12 11
75 80 75 78 62 59 70 81 88 77 75 82 86 89 92 96 102 104 102 90 79 60 62 57 42 42 31 26 25 19 7 11
68 71 72 68 73 55 70 68 81 88 81 86 93 88 91 96 106 110 91 84 78 69 63 54 47 36 29 25 21 14 5 10
92 93 91 85 94 83 72 76 80 91 87 90 95 92 89 95 104 103 97 82 65 60 60 56 46 37 29 28 22 12 8 11
88 90 84 81 87 80 83 82 82 90 87 91 91 87 87 96 101 100 91 84 80 68 54 52 42 38 34 30 20 17 10 10
Wind_Direction_500mb
230 238 237 240 236 234 235 236 233 231 231 232 234 236 239 238 238 237 236 233 232 233 234 238 244 256 262 268 274 279 283 286
262 256 247 243 237 237 237 239 238 238 237 236 236 235 237 239 238 237 234 233 232 232 234 238 245 254 261 268 274 276 279 284
294 281 265 251 246 246 244 242 245 243 241 239 238 238 238 238 237 235 233 232 231 232 232 236 242 251 257 263 270 274 279 283
271 261 258 250 249 250 246 246 246 245 244 241 241 239 239 239 237 234 231 231 230 230 232 236 242 248 255 261 267 273 279 284
261 261 263 262 263 257 249 248 249 246 243 241 241 241 240 240 235 232 231 230 229 228 230 234 241 247 254 260 267 272 279 286
271 273 272 269 266 260 255 250 248 245 242 241 241 241 240 238 235 232 230 229 227 225 227 232 238 244 250 260 268 273 280 290
268 273 272 269 266 265 259 256 251 244 244 241 239 238 238 236 232 229 228 226 224 224 226 231 237 242 250 259 266 272 283 293
274 272 270 273 273 267 262 257 248 243 241 239 239 236 235 233 229 226 225 223 222 222 225 231 235 242 252 266 267 277 287 294
279 282 290 295 286 267 258 252 244 240 240 238 235 234 233 230 227 225 224 222 220 219 224 227 230 241 255 258 265 275 285 289
296 294 293 291 284 263 251 246 240 238 239 238 234 233 231 228 226 224 222 218 217 217 221 222 230 242 246 254 264 273 280 294
329 307 300 296 292 271 251 239 238 240 239 236 234 233 232 229 225 222 219 218 216 216 218 219 233 240 246 248 252 266 285 294
332 337 329 319 303 281 259 255 247 238 238 235 234 233 231 227 224 220 214 212 212 213 215 220 234 236 241 243 248 267 282 294
321 324 322 331 320 295 272 263 252 244 240 237 235 231 228 226 223 218 212 209 208 209 210 220 225 233 233 236 235 257 267 280
319 312 310 317 315 310 298 279 262 252 245 241 237 232 229 225 221 214 210 207 205 207 211 218 223 221 222 220 234 245 266 292
308 305 300 297 302 297 290 280 274 265 255 246 238 235 231 225 222 215 210 205 203 204 209 215 218 214 210 219 232 249 276 302
296 295 296 295 288 286 282 271 257 253 252 250 240 236 229 225 221 211 212 210 211 211 214 223 216 207 204 214 235 262 275 326
291 290 290 294 288 281 276 271 261 251 247 241 235 226 223 219 212 209 207 206 207 211 218 213 205 199 189 184 212 228 260 315
294 289 290 287 284 280 275 267 263 259 253 246 240 231 220 214 205 198 193 197 199 205 203 200 199 192 179 191 197 211 253 302
298 289 284 275 278 275 272 270 262 255 252 247 242 232 220 211 201 198 183 175 175 186 191 187 182 177 175 191 193 208 244 318
301 293 292 286 273 276 274 267 260 250 243 241 235 227 218 204 194 193 194 191 187 176 172 175 174 170 186 183 193 223 254 329
Wind_Speed_850mb
38 39 44 56 67 74 79 87 93 97 96 96 91 88 90 91 89 89 84 80 76 70 64 58 49 49 52 52 50 48 43 42
29 38 46 56 68 73 81 86 90 95 101 102 101 99 96 91 91 90 87 83 78 70 64 58 51 52 53 52 51 47 43 41
48 48 58 65 66 71 81 86 83 93 103 107 107 103 99 94 93 90 87 83 78 72 67 62 57 59 55 52 50 49 44 44
49 62 72 70 73 80 85 85 83 91 99 105 108 106 104 97 92 88 86 85 80 75 68 62 61 59 55 51 48 48 45 45
63 66 74 76 79 87 87 86 88 92 98 103 105 103 105 102 91 86 86 86 83 75 70 67 64 59 55 51 49 46 46 46
65 71 74 80 82 88 92 95 95 97 97 100 99 99 102 100 89 83 84 86 84 79 75 72 66 58 52 50 49 45 45 46
77 72 81 89 92 97 100 98 96 99 98 98 98 99 102 96 91 86 86 88 88 84 79 71 62 54 52 52 46 47 44 47
85 79 74 76 81 87 86 89 103 99 97 96 94 98 98 93 91 88 91 89 92 86 77 68 58 52 50 48 51 44 44 47
76 84 89 81 69 68 78 83 91 91 93 93 93 94 93 91 90 89 89 92 95 87 77 66 53 53 50 52 44 41 43 44
94 96 79 67 60 61 67 73 78 81 88 92 90 91 93 92 91 90 92 96 97 83 75 64 57 54 56 48 41 39 41 41
60 59 61 49 42 53 61 66 72 72 80 84 88 91 92 91 93 92 89 95 91 81 72 58 52 61 51 45 36 37 37 41
74 60 48 47 42 45 53 60 69 72 74 80 83 86 86 89 92 91 93 100 92 81 70 53 62 52 50 39 36 30 32 38
77 69 60 56 44 40 47 55 66 66 69 75 80 84 87 86 93 91 99 101 90 80 66 62 58 54 44 39 26 24 29 35
68 69 73 70 62 58 53 49 54 60 63 69 76 80 83 86 93 94 104 101 90 78 65 61 56 48 41 29 24 25 22 23
70 73 82 68 70 71 69 61 53 54 62 67 72 76 79 84 91 96 108 100 91 78 71 61 56 46 34 27 22 18 17 15
84 77 89 77 62 68 76 80 74 72 72 72 76 79 82 88 97 106 106 93 78 74 59 65 57 45 35 25 15 14 12 11
75 80 75 78 62 59 70 81 88 77 75 82 86 89 92 96 102 104 102 90 79 60 62 57 42 42 31 26 25 19 7 11
68 71 72 68 73 55 70 68 81 88 81 86 93 88 91 96 106 110 91 84 78 69 63 54 47 36 29 25 21 14 5 10
92 93 91 85 94 83 72 76 80 91 87 90 95 92 89 95 104 103 97 82 65 60 60 56 46 37 29 28 22 12 8 11
88 90 84 81 87 80 83 82 82 90 87 91 91 87 87 96 101 100 91 84 80 68 54 52 42 38 34 30 20 17 10 10
Wind_Direction_850mb
230 238 237 240 236 234 235 236 233 231 231 232 234 236 239 238 238 237 236 233 232 233 234 238 244 256 262 268 274 279 283 286
262 256 247 243 237 237 237 239 238 238 237 236 236 235 237 239 238 237 234 233 232 232 234 238 245 254 261 268 274 276 279 284
294 281 265 251 246 246 244 242 245 243 241 239 238 238 238 238 237 235 233 232 231 232 232 236 242 251 257 263 270 274 279 283
271 261 258 250 249 250 246 246 246 245 244 241 241 239 239 239 237 234 231 231 230 230 232 236 242 248 255 261 267 273 279 284
261 261 263 262 263 257 249 248 249 246 243 241 241 241 240 240 235 232 231 230 229 228 230 234 241 247 254 260 267 272 279 286
271 273 272 269 266 260 255 250 248 245 242 241 241 241 240 238 235 232 230 229 227 225 227 232 238 244 250 260 268 273 280 290
268 273 272 269 266 265 259 256 251 244 244 241 239 238 238 236 232 229 228 226 224 224 226 231 237 242 250 259 266 272 283 293
274 272 270 273 273 267 262 257 248 243 241 239 239 236 235 233 229 226 225 223 222 222 225 231 235 242 252 266 267 277 287 294
279 282 290 295 286 267 258 252 244 240 240 238 235 234 233 230 227 225 224 222 220 219 224 227 230 241 255 258 265 275 285 289
296 294 293 291 284 263 251 246 240 238 239 238 234 233 231 228 226 224 222 218 217 217 221 222 230 242 246 254 264 273 280 294
329 307 300 296 292 271 251 239 238 240 239 236 234 233 232 229 225 222 219 218 216 216 218 219 233 240 246 248 252 266 285 294
332 337 329 319 303 281 259 255 247 238 238 235 234 233 231 227 224 220 214 212 212 213 215 220 234 236 241 243 248 267 282 294
321 324 322 331 320 295 272 263 252 244 240 237 235 231 228 226 223 218 212 209 208 209 210 220 225 233 233 236 235 257 267 280
319 312 310 317 315 310 298 279 262 252 245 241 237 232 229 225 221 214 210 207 205 207 211 218 223 221 222 220 234 245 266 292
308 305 300 297 302 297 290 280 274 265 255 246 238 235 231 225 222 215 210 205 203 204 209 215 218 214 210 219 232 249 276 302
296 295 296 295 288 286 282 271 257 253 252 250 240 236 229 225 221 211 212 210 211 211 214 223 216 207 204 214 235 262 275 326
291 290 290 294 288 281 276 271 261 251 247 241 235 226 223 219 212 209 207 206 207 211 218 213 205 199 189 184 212 228 260 315
294 289 290 287 284 280 275 267 263 259 253 246 240 231 220 214 205 198 193 197 199 205 203 200 199 192 179 191 197 211 253 302
298 289 284 275 278 275 272 270 262 255 252 247 242 232 220 211 201 198 183 175 175 186 191 187 182 177 175 191 193 208 244 318
301 293 292 286 273 276 274 267 260 250 243 241 235 227 218 204 194 193 194 191 187 176 172 175 174 170 186 183 193 223 254 329